Location: Buckeye Ditch
(40.9104°N, 122.9517°W)
Time: 23:08:15
(UTC+00:00)

Transit 2A - Pass Details

Date: 22 May 2025
Orbit: 599 x 947 km, 66.7° (Epoch: 20 June)

Event Time Altitude Azimuth Distance (km) Brightness Sun altitude
Rises 01:05:38 0° 308° (NW) 2,931 9.9 24.8°
Reaches altitude 10° 01:09:00 10° 281° (W) 2,072 10.2 24.2°
Maximum altitude 01:11:10 13° 253° (WSW) 1,902 9.5 23.8°
Drops below altitude 10° 01:13:24 10° 225° (SW) 2,153 9.0 23.4°
Sets 01:17:03 0° 199° (SSW) 3,150 9.3 22.7°
